| time (UTC) | temp F | wind direction | speed MPH | gust MPH | rain 1hr in | rain 24hr in | rain mn in | humidity % | barometer mb |
| 20260506073526 | 37 | 0 | 0.0 | 0.0 | 0.00 | 0.04 | 0.00 | 91 | 1016.6 |
| 20260506073042 | 37 | 0 | 0.0 | 1.0 | 0.00 | 0.04 | 0.00 | 91 | 1016.6 |
| 20260506072526 | 37 | 0 | 0.0 | 2.0 | 0.00 | 0.04 | 0.00 | 91 | 1016.5 |
| 20260506072027 | 38 | 279 | 0.0 | 2.0 | 0.00 | 0.04 | 0.00 | 90 | 1016.7 |
| 20260506071542 | 38 | 279 | 0.0 | 2.0 | 0.00 | 0.04 | 0.00 | 90 | 1016.6 |
| 20260506071021 | 38 | 0 | 0.0 | 2.0 | 0.00 | 0.04 | 0.00 | 90 | 1016.4 |
| 20260506070528 | 38 | 0 | 0.0 | 3.0 | 0.00 | 0.04 | 0.00 | 90 | 1016.4 |
| 20260506062026 | 40 | 0 | 0.0 | 2.0 | 0.00 | 0.04 | 0.00 | 89 | 1016.5 |
| 20260506061549 | 40 | 277 | 0.0 | 3.0 | 0.00 | 0.04 | 0.00 | 89 | 1016.4 |
| 20260506061027 | 40 | 0 | 0.0 | 4.0 | 0.00 | 0.04 | 0.00 | 88 | 1016.3 |
| 20260506060525 | 40 | 277 | 1.0 | 4.0 | 0.00 | 0.04 | 0.00 | 88 | 1016.4 |
| 20260506051025 | 41 | 0 | 1.0 | 6.0 | 0.04 | 0.04 | 0.04 | 88 | 1016.8 |
| 20260506050526 | 41 | 207 | 3.0 | 13.0 | 0.04 | 0.04 | 0.04 | 87 | 1017.0 |
| 20260506045026 | 41 | 184 | 5.0 | 12.0 | 0.04 | 0.04 | 0.04 | 88 | 1017.2 |
| 20260506044536 | 41 | 0 | 0.0 | 3.0 | 0.03 | 0.03 | 0.03 | 89 | 1017.0 |
| 20260506044022 | 41 | 0 | 0.0 | 5.0 | 0.03 | 0.03 | 0.03 | 89 | 1016.7 |
| 20260506043524 | 41 | 295 | 0.0 | 7.0 | 0.01 | 0.01 | 0.01 | 89 | 1016.4 |
| 20260506043043 | 41 | 296 | 3.0 | 7.0 | 0.01 | 0.01 | 0.01 | 88 | 1016.2 |
| 20260506042523 | 41 | 284 | 3.0 | 8.0 | 0.01 | 0.01 | 0.01 | 89 | 1016.1 |
| 20260506042025 | 41 | 288 | 3.0 | 8.0 | 0.00 | 0.00 | 0.00 | 89 | 1016.0 |
| 20260506041544 | 41 | 300 | 3.0 | 8.0 | 0.00 | 0.00 | 0.00 | 89 | 1015.8 |
| 20260506041025 | 41 | 294 | 3.0 | 10.0 | 0.00 | 0.00 | 0.00 | 89 | 1015.7 |
| 20260506040526 | 41 | 295 | 2.0 | 10.0 | 0.00 | 0.00 | 0.00 | 89 | 1015.7 |
| 20260506011540 | 54 | 125 | 4.0 | 10.0 | 0.00 | 0.00 | 0.00 | 48 | 1012.6 |
| 20260506011024 | 54 | 80 | 2.0 | 13.0 | 0.00 | 0.00 | 0.00 | 48 | 1012.3 |
| 20260506010524 | 54 | 90 | 5.0 | 13.0 | 0.00 | 0.00 | 0.00 | 48 | 1012.6 |
| 20260506010040 | 54 | 105 | 6.0 | 13.0 | 0.00 | 0.00 | 0.00 | 47 | 1012.7 |
| 20260506005524 | 55 | 117 | 7.0 | 13.0 | 0.00 | 0.00 | 0.00 | 47 | 1012.7 |
| 20260506005022 | 56 | 90 | 6.0 | 18.0 | 0.00 | 0.00 | 0.00 | 44 | 1012.7 |
| 20260506004541 | 57 | 101 | 11.0 | 18.0 | 0.00 | 0.00 | 0.00 | 42 | 1012.7 |
| 20260506004029 | 58 | 132 | 6.0 | 14.0 | 0.00 | 0.00 | 0.00 | 43 | 1012.6 |
| 20260506003530 | 58 | 109 | 9.0 | 15.0 | 0.00 | 0.00 | 0.00 | 42 | 1012.7 |
| 20260506003035 | 59 | 121 | 6.0 | 17.0 | 0.00 | 0.00 | 0.00 | 42 | 1012.7 |
| 20260506002524 | 59 | 124 | 7.0 | 17.0 | 0.00 | 0.00 | 0.00 | 42 | 1012.5 |
| 20260506002023 | 59 | 108 | 6.0 | 15.0 | 0.00 | 0.00 | 0.00 | 42 | 1012.6 |
| 20260506001548 | 58 | 105 | 5.0 | 14.0 | 0.00 | 0.00 | 0.00 | 42 | 1012.5 |
| 20260506001025 | 58 | 98 | 9.0 | 16.0 | 0.00 | 0.00 | 0.00 | 42 | 1012.6 |
| 20260506000527 | 58 | 107 | 9.0 | 21.0 | 0.00 | 0.00 | 0.00 | 42 | 1012.7 |
| 20260506000054 | 59 | 114 | 10.0 | 22.0 | 0.00 | 0.00 | 0.00 | 43 | 1012.7 |
| 20260505235524 | 59 | 89 | 9.0 | 22.0 | 0.00 | 0.00 | 0.00 | 43 | 1012.7 |
| 20260505235027 | 59 | 78 | 11.0 | 20.0 | 0.00 | 0.00 | 0.00 | 43 | 1012.5 |
| 20260505234542 | 59 | 112 | 10.0 | 20.0 | 0.00 | 0.00 | 0.00 | 43 | 1012.5 |
| 20260505234026 | 59 | 106 | 8.0 | 19.0 | 0.00 | 0.00 | 0.00 | 44 | 1012.4 |
| 20260505233525 | 58 | 103 | 11.0 | 25.0 | 0.00 | 0.00 | 0.00 | 45 | 1012.4 |
| 20260505233044 | 57 | 99 | 8.0 | 25.0 | 0.00 | 0.00 | 0.00 | 45 | 1012.5 |
| 20260505232527 | 57 | 86 | 10.0 | 22.0 | 0.00 | 0.00 | 0.00 | 46 | 1012.7 |
| 20260505232024 | 57 | 137 | 13.0 | 21.0 | 0.00 | 0.00 | 0.00 | 47 | 1012.7 |
| 20260505231538 | 56 | 74 | 8.0 | 20.0 | 0.00 | 0.00 | 0.00 | 47 | 1012.7 |
| 20260505231028 | 56 | 147 | 11.0 | 22.0 | 0.00 | 0.00 | 0.00 | 46 | 1012.6 |
| 20260505230524 | 57 | 119 | 8.0 | 27.0 | 0.00 | 0.00 | 0.00 | 45 | 1012.5 |
| 20260505230044 | 57 | 127 | 10.0 | 27.0 | 0.00 | 0.00 | 0.00 | 46 | 1012.6 |
| 20260505225525 | 57 | 136 | 10.0 | 20.0 | 0.00 | 0.00 | 0.00 | 46 | 1012.5 |
| 20260505225025 | 57 | 88 | 9.0 | 19.0 | 0.00 | 0.00 | 0.00 | 46 | 1012.5 |
| 20260505224546 | 57 | 92 | 10.0 | 19.0 | 0.00 | 0.00 | 0.00 | 45 | 1012.5 |
| 20260505224024 | 58 | 77 | 8.0 | 19.0 | 0.00 | 0.00 | 0.00 | 46 | 1012.5 |
| 20260505223525 | 58 | 123 | 8.0 | 20.0 | 0.00 | 0.00 | 0.00 | 45 | 1012.4 |
| 20260505223042 | 57 | 113 | 9.0 | 20.0 | 0.00 | 0.00 | 0.00 | 45 | 1012.5 |
| 20260505222526 | 58 | 87 | 12.0 | 20.0 | 0.00 | 0.00 | 0.00 | 43 | 1012.5 |
| 20260505222023 | 59 | 119 | 8.0 | 20.0 | 0.00 | 0.00 | 0.00 | 42 | 1012.5 |
| 20260505221549 | 59 | 119 | 9.0 | 20.0 | 0.00 | 0.00 | 0.00 | 42 | 1012.5 |
| 20260505221024 | 59 | 80 | 7.0 | 22.0 | 0.00 | 0.00 | 0.00 | 43 | 1012.5 |
| 20260505220524 | 60 | 110 | 9.0 | 22.0 | 0.00 | 0.00 | 0.00 | 41 | 1012.5 |
| 20260505220038 | 60 | 109 | 8.0 | 17.0 | 0.00 | 0.00 | 0.00 | 41 | 1012.6 |
| 20260505215526 | 60 | 163 | 7.0 | 21.0 | 0.00 | 0.00 | 0.00 | 41 | 1012.5 |
| 20260505215025 | 61 | 105 | 10.0 | 21.0 | 0.00 | 0.00 | 0.00 | 41 | 1012.5 |
| 20260505214539 | 60 | 69 | 9.0 | 21.0 | 0.00 | 0.00 | 0.00 | 42 | 1012.7 |
| 20260505214024 | 60 | 87 | 8.0 | 17.0 | 0.00 | 0.00 | 0.00 | 43 | 1012.7 |
| 20260505213524 | 60 | 106 | 8.0 | 19.0 | 0.00 | 0.00 | 0.00 | 44 | 1013.0 |
| 20260505213035 | 59 | 98 | 9.0 | 19.0 | 0.00 | 0.00 | 0.00 | 43 | 1013.0 |
| 20260505212525 | 61 | 111 | 9.0 | 19.0 | 0.00 | 0.00 | 0.00 | 41 | 1013.2 |
| 20260505212025 | 60 | 41 | 7.0 | 20.0 | 0.00 | 0.00 | 0.00 | 44 | 1013.2 |
| 20260505211609 | 60 | 150 | 8.0 | 20.0 | 0.00 | 0.00 | 0.00 | 43 | 1013.2 |
| 20260505211025 | 59 | 137 | 9.0 | 20.0 | 0.00 | 0.00 | 0.00 | 44 | 1013.4 |
| 20260505210524 | 60 | 123 | 11.0 | 17.0 | 0.00 | 0.00 | 0.00 | 43 | 1013.4 |
| 20260505210041 | 60 | 94 | 6.0 | 17.0 | 0.00 | 0.00 | 0.00 | 44 | 1013.3 |
| 20260505205526 | 60 | 99 | 9.0 | 17.0 | 0.00 | 0.00 | 0.00 | 44 | 1013.5 |
| 20260505205027 | 59 | 71 | 7.0 | 16.0 | 0.00 | 0.00 | 0.00 | 45 | 1013.6 |
| 20260505204553 | 58 | 135 | 8.0 | 24.0 | 0.00 | 0.00 | 0.00 | 46 | 1013.8 |
| 20260505204027 | 58 | 186 | 10.0 | 24.0 | 0.00 | 0.00 | 0.00 | 46 | 1014.0 |
| 20260505203525 | 57 | 136 | 9.0 | 17.0 | 0.00 | 0.00 | 0.00 | 46 | 1014.1 |
| 20260505203035 | 57 | 144 | 8.0 | 20.0 | 0.00 | 0.00 | 0.00 | 46 | 1014.1 |
| 20260505202524 | 58 | 120 | 9.0 | 21.0 | 0.00 | 0.00 | 0.00 | 46 | 1014.2 |
| 20260505202030 | 57 | 177 | 9.0 | 21.0 | 0.00 | 0.00 | 0.00 | 47 | 1014.3 |
| 20260505201542 | 58 | 144 | 9.0 | 18.0 | 0.00 | 0.00 | 0.00 | 48 | 1014.3 |
| 20260505201024 | 58 | 150 | 8.0 | 20.0 | 0.00 | 0.00 | 0.00 | 47 | 1014.2 |
| 20260505200524 | 57 | 110 | 8.0 | 20.0 | 0.00 | 0.00 | 0.00 | 48 | 1014.3 |
| 20260505200039 | 56 | 158 | 9.0 | 20.0 | 0.00 | 0.00 | 0.00 | 50 | 1014.1 |
| 20260505195524 | 56 | 163 | 11.0 | 20.0 | 0.00 | 0.00 | 0.00 | 51 | 1014.1 |
| 20260505195024 | 56 | 178 | 9.0 | 18.0 | 0.00 | 0.00 | 0.00 | 50 | 1014.0 |
| 20260505194538 | 56 | 104 | 9.0 | 18.0 | 0.00 | 0.00 | 0.00 | 50 | 1014.1 |
| 20260505194032 | 55 | 140 | 8.0 | 18.0 | 0.00 | 0.00 | 0.00 | 50 | 1014.1 |
| 20260505193523 | 55 | 139 | 8.0 | 20.0 | 0.00 | 0.00 | 0.00 | 49 | 1014.2 |
| 20260505193037 | 56 | 190 | 8.0 | 20.0 | 0.00 | 0.00 | 0.00 | 49 | 1014.2 |
| 20260505192522 | 56 | 190 | 8.0 | 19.0 | 0.00 | 0.00 | 0.00 | 48 | 1014.1 |
| 20260505192024 | 56 | 161 | 8.0 | 17.0 | 0.00 | 0.00 | 0.00 | 47 | 1014.2 |
| 20260505191536 | 57 | 155 | 5.0 | 17.0 | 0.00 | 0.00 | 0.00 | 46 | 1014.1 |
| 20260505191021 | 57 | 149 | 7.0 | 16.0 | 0.00 | 0.00 | 0.00 | 45 | 1014.2 |
| 20260505190522 | 57 | 117 | 7.0 | 15.0 | 0.00 | 0.00 | 0.00 | 45 | 1014.1 |
| 20260505190035 | 57 | 138 | 7.0 | 17.0 | 0.00 | 0.00 | 0.00 | 44 | 1014.1 |
| 20260505185524 | 57 | 113 | 8.0 | 17.0 | 0.00 | 0.00 | 0.00 | 45 | 1014.1 |
| 20260505185022 | 56 | 105 | 8.0 | 14.0 | 0.00 | 0.00 | 0.00 | 45 | 1014.1 |
| 20260505184542 | 56 | 107 | 6.0 | 14.0 | 0.00 | 0.00 | 0.00 | 43 | 1014.1 |
| 20260505184024 | 57 | 141 | 8.0 | 15.0 | 0.00 | 0.00 | 0.00 | 43 | 1014.2 |
| 20260505183528 | 58 | 121 | 8.0 | 15.0 | 0.00 | 0.00 | 0.00 | 42 | 1014.2 |
| 20260505183038 | 58 | 75 | 6.0 | 14.0 | 0.00 | 0.00 | 0.00 | 40 | 1014.3 |
| 20260505182524 | 58 | 138 | 5.0 | 14.0 | 0.00 | 0.00 | 0.00 | 40 | 1014.2 |
| 20260505182028 | 59 | 99 | 6.0 | 14.0 | 0.00 | 0.00 | 0.00 | 39 | 1014.1 |
| 20260505181555 | 59 | 165 | 3.0 | 12.0 | 0.00 | 0.00 | 0.00 | 38 | 1013.9 |
| 20260505181028 | 59 | 69 | 6.0 | 12.0 | 0.00 | 0.00 | 0.00 | 38 | 1014.1 |
| 20260505180524 | 59 | 62 | 5.0 | 12.0 | 0.00 | 0.00 | 0.00 | 38 | 1014.1 |
| 20260505180037 | 57 | 65 | 3.0 | 12.0 | 0.00 | 0.00 | 0.00 | 38 | 1014.2 |
| 20260505175524 | 56 | 90 | 3.0 | 12.0 | 0.00 | 0.00 | 0.00 | 39 | 1014.3 |
| 20260505175024 | 56 | 173 | 3.0 | 9.0 | 0.00 | 0.00 | 0.00 | 40 | 1014.3 |
| 20260505174538 | 56 | 146 | 4.0 | 8.0 | 0.00 | 0.00 | 0.00 | 39 | 1014.6 |
| 20260505174024 | 57 | 0 | 3.0 | 8.0 | 0.00 | 0.00 | 0.00 | 38 | 1014.7 |
| 20260505173523 | 57 | 78 | 1.0 | 8.0 | 0.00 | 0.00 | 0.00 | 39 | 1014.6 |
| 20260505173036 | 57 | 50 | 2.0 | 9.0 | 0.00 | 0.00 | 0.00 | 39 | 1014.6 |
| 20260505172524 | 57 | 66 | 2.0 | 9.0 | 0.00 | 0.00 | 0.00 | 39 | 1014.6 |
| 20260505172025 | 58 | 108 | 4.0 | 9.0 | 0.00 | 0.00 | 0.00 | 38 | 1014.5 |
| 20260505171542 | 57 | 88 | 1.0 | 9.0 | 0.00 | 0.00 | 0.00 | 39 | 1014.6 |
| 20260505171025 | 56 | 175 | 4.0 | 8.0 | 0.00 | 0.00 | 0.00 | 40 | 1014.6 |
| 20260505170524 | 55 | 0 | 1.0 | 7.0 | 0.00 | 0.00 | 0.00 | 40 | 1014.7 |
| 20260505170038 | 55 | 163 | 3.0 | 10.0 | 0.00 | 0.00 | 0.00 | 40 | 1014.6 |
| 20260505165524 | 54 | 67 | 5.0 | 11.0 | 0.00 | 0.00 | 0.00 | 41 | 1014.8 |
| 20260505165026 | 54 | 145 | 4.0 | 11.0 | 0.00 | 0.00 | 0.00 | 41 | 1014.9 |
| 20260505164538 | 54 | 190 | 3.0 | 8.0 | 0.00 | 0.00 | 0.00 | 42 | 1015.0 |
| 20260505164024 | 54 | 132 | 4.0 | 10.0 | 0.00 | 0.00 | 0.00 | 43 | 1015.0 |
| 20260505163526 | 53 | 131 | 6.0 | 10.0 | 0.00 | 0.00 | 0.00 | 43 | 1015.0 |
| 20260505163035 | 53 | 123 | 4.0 | 11.0 | 0.00 | 0.00 | 0.00 | 44 | 1015.1 |
| 20260505162524 | 53 | 156 | 6.0 | 11.0 | 0.00 | 0.00 | 0.00 | 45 | 1015.1 |
| 20260505162024 | 53 | 148 | 6.0 | 11.0 | 0.00 | 0.00 | 0.00 | 45 | 1015.1 |
| 20260505161548 | 52 | 174 | 5.0 | 11.0 | 0.00 | 0.00 | 0.00 | 46 | 1015.2 |
| 20260505161024 | 52 | 171 | 5.0 | 13.0 | 0.00 | 0.00 | 0.00 | 48 | 1015.2 |
| 20260505160526 | 51 | 183 | 5.0 | 13.0 | 0.00 | 0.00 | 0.00 | 48 | 1015.2 |
| 20260505153044 | 51 | 120 | 5.0 | 20.0 | 0.00 | 0.00 | 0.00 | 49 | 1015.2 |
| 20260505152523 | 51 | 153 | 7.0 | 20.0 | 0.00 | 0.00 | 0.00 | 48 | 1015.3 |
| 20260505152025 | 51 | 183 | 5.0 | 14.0 | 0.00 | 0.00 | 0.00 | 48 | 1015.2 |
| 20260505151536 | 51 | 105 | 6.0 | 14.0 | 0.00 | 0.00 | 0.00 | 47 | 1015.1 |
| 20260505151023 | 51 | 119 | 8.0 | 14.0 | 0.00 | 0.00 | 0.00 | 47 | 1015.2 |
| 20260505150524 | 52 | 111 | 5.0 | 15.0 | 0.00 | 0.00 | 0.00 | 48 | 1015.2 |
| 20260505140526 | 54 | 156 | 7.0 | 14.0 | 0.00 | 0.00 | 0.00 | 45 | 1015.4 |
| 20260505125024 | 49 | 196 | 3.0 | 8.0 | 0.00 | 0.00 | 0.00 | 45 | 1015.4 |
| 20260505124541 | 48 | 188 | 3.0 | 5.0 | 0.00 | 0.00 | 0.00 | 46 | 1015.6 |
| 20260505124026 | 48 | 176 | 1.0 | 5.0 | 0.00 | 0.00 | 0.00 | 45 | 1015.6 |
| 20260505123526 | 48 | 0 | 1.0 | 7.0 | 0.00 | 0.00 | 0.00 | 45 | 1015.6 |
| 20260505123048 | 48 | 191 | 3.0 | 7.0 | 0.00 | 0.00 | 0.00 | 46 | 1015.5 |
| 20260505122524 | 48 | 198 | 0.0 | 5.0 | 0.00 | 0.00 | 0.00 | 45 | 1015.5 |
| 20260505122028 | 48 | 0 | 0.0 | 8.0 | 0.00 | 0.00 | 0.00 | 45 | 1015.3 |
| 20260505121536 | 48 | 198 | 1.0 | 8.0 | 0.00 | 0.00 | 0.00 | 45 | 1015.2 |
| 20260505121026 | 48 | 194 | 3.0 | 8.0 | 0.00 | 0.00 | 0.00 | 45 | 1015.1 |
| 20260505120523 | 47 | 201 | 3.0 | 8.0 | 0.00 | 0.00 | 0.00 | 45 | 1015.0 |
| 20260505115525 | 48 | 213 | 1.0 | 6.0 | 0.00 | 0.00 | 0.00 | 44 | 1014.9 |
| 20260505115101 | 48 | 198 | 1.0 | 3.0 | 0.00 | 0.00 | 0.00 | 44 | 1014.8 |
| 20260505114539 | 48 | 0 | 0.0 | 2.0 | 0.00 | 0.00 | 0.00 | 43 | 1014.9 |
| 20260505114025 | 48 | 0 | 0.0 | 2.0 | 0.00 | 0.00 | 0.00 | 43 | 1015.0 |
| 20260505113525 | 49 | 0 | 0.0 | 4.0 | 0.00 | 0.00 | 0.00 | 42 | 1015.2 |
| 20260505113038 | 49 | 0 | 0.0 | 5.0 | 0.00 | 0.00 | 0.00 | 42 | 1015.2 |
| 20260505112524 | 49 | 192 | 2.0 | 5.0 | 0.00 | 0.00 | 0.00 | 42 | 1015.2 |
| 20260505112025 | 49 | 190 | 2.0 | 5.0 | 0.00 | 0.00 | 0.00 | 42 | 1015.2 |
| 20260505111538 | 50 | 176 | 2.0 | 5.0 | 0.00 | 0.00 | 0.00 | 41 | 1015.1 |
| 20260505111028 | 50 | 185 | 2.0 | 5.0 | 0.00 | 0.00 | 0.00 | 41 | 1015.2 |
| 20260505110525 | 50 | 180 | 2.0 | 4.0 | 0.00 | 0.00 | 0.00 | 41 | 1015.0 |
| 20260505102029 | 51 | 132 | 3.0 | 6.0 | 0.00 | 0.00 | 0.00 | 38 | 1014.7 |
| 20260505101540 | 51 | 178 | 2.0 | 5.0 | 0.00 | 0.00 | 0.00 | 38 | 1014.8 |
| 20260505101025 | 52 | 188 | 1.0 | 3.0 | 0.00 | 0.00 | 0.00 | 39 | 1014.7 |
| 20260505100525 | 52 | 0 | 1.0 | 7.0 | 0.00 | 0.00 | 0.00 | 38 | 1014.6 |
| 20260505100040 | 52 | 181 | 1.0 | 8.0 | 0.00 | 0.00 | 0.00 | 38 | 1014.6 |
| 20260505095523 | 52 | 162 | 3.0 | 8.0 | 0.00 | 0.00 | 0.00 | 38 | 1014.5 |
| 20260505095025 | 52 | 194 | 4.0 | 9.0 | 0.00 | 0.00 | 0.00 | 38 | 1014.6 |
| 20260505094536 | 52 | 172 | 5.0 | 9.0 | 0.00 | 0.00 | 0.00 | 38 | 1014.6 |
| 20260505094025 | 52 | 179 | 3.0 | 8.0 | 0.00 | 0.00 | 0.00 | 37 | 1014.7 |
| 20260505093524 | 52 | 170 | 3.0 | 7.0 | 0.00 | 0.00 | 0.00 | 38 | 1014.8 |
| 20260505093035 | 52 | 196 | 1.0 | 5.0 | 0.00 | 0.00 | 0.00 | 38 | 1014.8 |
| 20260505092526 | 52 | 196 | 2.0 | 6.0 | 0.00 | 0.00 | 0.00 | 38 | 1014.8 |
| 20260505092026 | 52 | 196 | 3.0 | 8.0 | 0.00 | 0.00 | 0.00 | 38 | 1014.7 |
| 20260505091535 | 53 | 194 | 3.0 | 8.0 | 0.00 | 0.00 | 0.00 | 38 | 1014.6 |
| 20260505091025 | 53 | 174 | 3.0 | 8.0 | 0.00 | 0.00 | 0.00 | 37 | 1014.6 |
| 20260505090524 | 53 | 192 | 3.0 | 8.0 | 0.00 | 0.00 | 0.00 | 37 | 1014.9 |
| 20260505090037 | 53 | 0 | 1.0 | 6.0 | 0.00 | 0.00 | 0.00 | 37 | 1014.9 |
| 20260505085526 | 53 | 210 | 1.0 | 6.0 | 0.00 | 0.00 | 0.00 | 36 | 1015.0 |
| 20260505085024 | 53 | 209 | 1.0 | 6.0 | 0.00 | 0.00 | 0.00 | 36 | 1014.9 |
| 20260505084541 | 53 | 207 | 2.0 | 6.0 | 0.00 | 0.00 | 0.00 | 36 | 1015.0 |
| 20260505084024 | 53 | 209 | 1.0 | 5.0 | 0.00 | 0.00 | 0.00 | 36 | 1015.0 |
| 20260505083526 | 53 | 209 | 1.0 | 5.0 | 0.00 | 0.00 | 0.00 | 36 | 1015.0 |
| 20260505083044 | 54 | 0 | 0.0 | 0.0 | 0.00 | 0.00 | 0.00 | 35 | 1015.2 |
| 20260505082526 | 54 | 0 | 0.0 | 3.0 | 0.00 | 0.00 | 0.00 | 35 | 1015.4 |
| 20260505082026 | 54 | 0 | 0.0 | 5.0 | 0.00 | 0.00 | 0.00 | 35 | 1015.6 |
| 20260505081536 | 54 | 183 | 1.0 | 9.0 | 0.00 | 0.00 | 0.00 | 34 | 1015.7 |
| 20260505081029 | 54 | 180 | 2.0 | 10.0 | 0.00 | 0.00 | 0.00 | 34 | 1015.9 |
| 20260505080529 | 55 | 163 | 5.0 | 10.0 | 0.00 | 0.00 | 0.00 | 34 | 1015.8 |